[[{"header":{"parameterUnit":"m.s-1","parameterCategory":1,"la1":30.2991,"la2":30.254,"lo1":-89.0895,"lo2":-89.0444,"dy":0.0017,"dx":0.0017,"nx":28,"ny":28,"refTime":"2025-03-12T21:00:00:Z","depth":0,"parameterNumber":2,"parameterNumberName":"U-component_of_WINDS"},"data":[0,0,0,0,0,0,0,0,0,0,0,0,0,0,0,0,0,0,0,0,0,0,0,0,0,0,0,0,0,0,0,0,0,0,0,0,0,0,0,0,0,0,0,0,0,0,0,0,0,0,0,0,0,0,0,0,0,0,-3.5053,-3.5054,0,-3.515,-3.5151,-3.5152,-3.5172,-3.5171,-3.517,-3.5169,-3.5267,-3.527,-3.5273,0,0,0,0,0,0,0,0,0,0,0,0,0,-3.4882,-3.4885,-3.5053,-3.5054,-3.5055,-3.515,-3.5151,-3.5153,-3.5172,-3.5171,-3.517,-3.5169,-3.5265,-3.5269,-3.5273,0,0,0,0,0,0,0,0,0,0,0,0,0,-3.4965,-3.4886,-3.5053,-3.5076,-3.508,-3.515,-3.5151,-3.5153,-3.5172,-3.5171,-3.517,-3.5169,-3.5264,-3.5269,-3.5274,-3.5327,0,0,-3.5289,-3.5291,0,0,0,0,0,0,0,0,-3.4961,-3.4972,-3.5072,-3.5075,-3.5078,-3.5148,-3.5127,-3.5211,-3.5172,-3.5137,-3.5169,-3.5168,-3.5228,-3.5236,-3.5256,-3.5331,-3.5335,-3.5289,-3.5292,-3.5294,-3.5296,0,0,0,0,0,0,0,-3.4955,-3.4968,-3.5091,-3.5073,-3.5077,-3.5082,-3.5092,-3.5143,-3.5187,-3.514,-3.5141,-3.5153,-3.5229,-3.5251,-3.5259,-3.5337,-3.5289,-3.5293,-3.5297,-3.5298,-3.546,-3.5461,0,0,0,0,0,0,-3.4945,-3.4963,-3.5088,-3.5094,-3.5016,-3.5086,-3.5097,-3.5127,-3.5187,-3.5195,-3.5154,-3.5153,-3.5244,-3.5253,-3.5262,-3.5327,-3.5294,-3.5299,-3.5302,-3.5459,-3.546,-3.5462,0,0,0,0,0,0,-3.4942,-3.4956,-3.5084,-3.5029,-3.5046,-3.509,-3.5122,-3.5129,-3.5151,-3.5197,-3.5205,-3.5168,-3.5243,-3.5255,-3.5311,-3.5331,-3.5301,-3.5306,-3.5457,-3.5459,-3.5461,-3.5459,0,0,0,0,0,0,-3.4937,-3.4955,-3.4976,-3.5029,-3.5049,-3.5132,-3.5124,-3.5132,-3.516,-3.516,-3.5213,-3.5221,-3.5243,-3.5303,-3.5315,-3.5337,-3.5309,-3.5455,-3.5458,-3.546,-3.5457,-3.546,-3.5463,0,0,0,0,0,-3.493,-3.4971,-3.4977,-3.4992,-3.5076,-3.5133,-3.5144,-3.5169,-3.5161,-3.5182,-3.5212,-3.5219,-3.5327,-3.5309,-3.5323,-3.5346,-3.5454,-3.5457,-3.546,-3.5456,-3.546,-3.5463,0,0,0,0,0,0,-3.4917,-3.4978,-3.4985,-3.5044,-3.5083,-3.5136,-3.5163,-3.5173,-3.5214,-3.5213,-3.5243,-3.5254,-3.5308,-3.5333,-3.5311,-3.5401,-3.539,-3.5396,-3.5382,-3.5386,-3.5389,-3.5381,-3.5314,0,0,0,0,0,-3.4921,-3.4963,-3.5014,-3.5061,-3.508,-3.5118,-3.5144,-3.5161,-3.5202,-3.5219,-3.5252,-3.5292,-3.5335,-3.5362,-3.5404,-3.5462,-3.5473,-3.5485,-3.5488,-3.549,-3.5494,-3.5526,-3.5532,-3.5472,-3.5472,-3.5472,0,0,-3.4929,-3.4968,-3.4992,-3.5059,-3.5091,-3.5133,-3.5132,-3.5177,-3.5208,-3.5225,-3.5279,-3.5306,-3.5352,-3.5408,-3.5435,-3.5431,-3.5514,-3.5494,-3.5495,-3.5498,-3.553,-3.5535,-3.554,-3.5474,-3.5473,-3.5473,0,0,-3.4965,-3.5,-3.5042,-3.5075,-3.5124,-3.515,-3.516,-3.5212,-3.523,-3.5285,-3.5299,-3.5337,-3.5411,-3.5443,-3.5468,-3.5519,-3.5526,-3.5532,-3.5546,-3.5577,-3.5582,-3.5586,-3.5603,-3.5609,-3.5536,-3.5536,-3.5536,0,-3.4969,-3.5034,-3.5063,-3.5107,-3.5135,-3.5155,-3.5198,-3.5228,-3.5288,-3.5307,-3.5302,-3.5395,-3.5428,-3.5492,-3.5504,-3.5525,-3.5537,-3.5525,-3.5579,-3.5584,-3.5588,-3.5604,-3.5611,-3.5536,-3.5536,-3.5536,-3.5536,0,-3.5035,-3.508,-3.5109,-3.5167,-3.5199,-3.5243,-3.5278,-3.5307,-3.5321,-3.5347,-3.5403,-3.5443,-3.5493,-3.551,-3.5525,-3.5577,-3.5573,-3.5573,-3.5563,-3.5594,-3.5609,-3.5616,-3.5537,-3.5537,-3.5537,-3.5536,0,0,-3.5063,-3.5139,-3.5148,-3.5175,-3.5232,-3.5267,-3.5311,-3.5362,-3.5385,-3.5427,-3.5464,-3.5527,-3.5528,-3.5557,-3.5576,-3.5603,-3.5639,-3.56,-3.5602,-3.5605,-3.5698,-3.5696,-3.5703,-3.5646,-3.5647,-3.5648,-3.5694,0,-3.5105,-3.5186,-3.5213,-3.5279,-3.5321,-3.534,-3.5379,-3.5418,-3.5443,-3.5482,-3.551,-3.5554,-3.5553,-3.557,-3.5599,-3.5629,-3.5658,-3.5626,-3.5679,-3.5681,-3.5665,-3.5711,-3.5709,-3.575,-3.57,-3.5701,-3.5702,0,-3.5164,-3.5207,-3.5278,-3.5329,-3.5348,-3.5382,-3.5431,-3.5468,-3.5512,-3.5529,-3.5563,-3.5579,-3.5626,-3.5615,-3.5679,-3.5657,-3.5681,-3.5699,-3.5702,-3.5706,-3.5692,-3.5715,-3.5764,-3.5769,-3.5712,-3.5712,-3.5711,0,-3.5176,-3.5252,-3.5304,-3.5326,-3.5388,-3.5412,-3.5439,-3.5482,-3.5511,-3.5553,-3.5572,-3.5619,-3.5645,-3.5681,-3.571,-3.5699,-3.5772,-3.5763,-3.5786,-3.5785,-3.5798,-3.5797,-3.585,-3.5817,-3.5817,-3.5816,-3.5816,0,-3.5219,-3.526,-3.531,-3.5341,-3.5389,-3.5421,-3.5467,-3.5495,-3.5534,-3.5571,-3.5591,-3.5625,-3.5663,-3.5702,-3.5725,-3.5774,-3.5786,-3.58,-3.5805,-3.5797,-3.5795,-3.5812,-3.5809,-3.5818,-3.5818,-3.5817,-3.5817,0,-3.5239,-3.5274,-3.5331,-3.5386,-3.5401,-3.5433,-3.548,-3.5511,-3.5539,-3.5585,-3.5598,-3.5641,-3.5688,-3.5721,-3.5782,-3.5797,-3.585,-3.5856,-3.5835,-3.5837,-3.5858,-3.5855,-3.5922,-3.5932,-3.5893,-3.5894,-3.5894,0,-3.5263,-3.5296,-3.5354,-3.5381,-3.5408,-3.5451,-3.548,-3.5514,-3.5544,-3.5597,-3.5622,-3.5671,-3.5711,-3.5786,-3.5822,-3.5868,-3.5874,-3.5895,-3.5881,-3.5872,-3.5873,-3.587,-3.5873,-3.5896,-3.5896,-3.5897,-3.5897,0,-3.5301,-3.5317,-3.5359,-3.5408,-3.5443,-3.5483,-3.5522,-3.5543,-3.5583,-3.5616,-3.5665,-3.5696,-3.5759,-3.5807,-3.5857,-3.5884,-3.5897,-3.5901,-3.5909,-3.59,-3.5886,-3.5892,-3.5839,-3.5899,-3.5899,-3.5898,-3.5898,-3.5898,-3.5323,-3.5353,-3.5399,-3.5445,-3.5479,-3.5516,-3.5548,-3.558,-3.5622,-3.5676,-3.5693,-3.5744,-3.5788,-3.5857,-3.5885,-3.5925,-3.5923,-3.5934,-3.5937,-3.5939,-3.5938,-3.5881,-3.5934,-3.5934,-3.5934,-3.5934,-3.5934,0,-3.5361,-3.5392,-3.5435,-3.549,-3.5527,-3.5538,-3.5582,-3.5612,-3.5656,-3.5697,-3.5737,-3.5793,-3.584,-3.5881,-3.5929,-3.5953,-3.596,-3.5965,-3.5962,-3.5968,-3.5937,-3.5925,-3.5958,-3.5958,-3.5958,-3.5958,-3.5958,-3.5958,-3.5385,-3.5436,-3.5458,-3.5526,-3.5557,-3.5607,-3.5631,-3.5666,-3.5698,-3.576,-3.58,-3.5826,-3.5867,-3.5919,-3.5962,-3.5973,-3.5989,-3.5992,-3.6004,-3.5973,-3.597,-3.5968,-3.5956,-3.5996,-3.5996,-3.6032,-3.6032,-3.6032]},{"header":{"parameterUnit":"m.s-1","parameterCategory":1,"la1":30.2991,"la2":30.254,"lo1":-89.0895,"lo2":-89.0444,"dy":0.0017,"dx":0.0017,"nx":28,"ny":28,"refTime":"2025-03-12T21:00:00:Z","depth":0,"parameterNumber":3,"parameterNumberName":"V-component_of_WINDS"},"data":[0,0,0,0,0,0,0,0,0,0,0,0,0,0,0,0,0,0,0,0,0,0,0,0,0,0,0,0,0,0,0,0,0,0,0,0,0,0,0,0,0,0,0,0,0,0,0,0,0,0,0,0,0,0,0,0,0,0,4.121,4.1211,0,4.1224,4.1224,4.1225,4.1221,4.1221,4.1221,4.1221,4.1232,4.1233,4.1233,0,0,0,0,0,0,0,0,0,0,0,0,0,4.1181,4.1181,4.121,4.1211,4.1211,4.1224,4.1224,4.1225,4.1221,4.1221,4.1221,4.122,4.1232,4.1233,4.1233,0,0,0,0,0,0,0,0,0,0,0,0,0,4.1194,4.1181,4.121,4.1211,4.1211,4.1224,4.1224,4.1225,4.1221,4.1221,4.1221,4.122,4.1232,4.1233,4.1233,4.1246,0,0,4.1236,4.1236,0,0,0,0,0,0,0,0,4.1193,4.1195,4.1211,4.1211,4.1211,4.1221,4.1218,4.1232,4.1222,4.1217,4.1221,4.122,4.1229,4.123,4.1233,4.1247,4.1247,4.1236,4.1237,4.1237,4.1237,0,0,0,0,0,0,0,4.1192,4.1194,4.1216,4.1211,4.1211,4.121,4.1212,4.1221,4.1225,4.1218,4.1218,4.1219,4.1229,4.1232,4.1233,4.1247,4.1236,4.1237,4.1237,4.1238,4.1275,4.1275,0,0,0,0,0,0,4.1191,4.1194,4.1215,4.1216,4.1201,4.1211,4.1213,4.1218,4.1225,4.1226,4.122,4.1219,4.1231,4.1232,4.1234,4.1251,4.1237,4.1238,4.1238,4.1275,4.1275,4.1276,0,0,0,0,0,0,4.1191,4.1193,4.1215,4.1205,4.1208,4.1212,4.1218,4.1218,4.1222,4.1226,4.1227,4.1223,4.1231,4.1232,4.1244,4.1251,4.1238,4.1239,4.1274,4.1275,4.1275,4.1284,0,0,0,0,0,0,4.119,4.1193,4.1198,4.1205,4.1208,4.1225,4.1218,4.1219,4.1224,4.1223,4.1229,4.123,4.1231,4.1243,4.1245,4.1252,4.1239,4.1273,4.1274,4.1275,4.1283,4.1285,4.1287,0,0,0,0,0,4.1189,4.1199,4.1198,4.1201,4.1214,4.1225,4.1227,4.1228,4.1224,4.1229,4.1233,4.123,4.125,4.1244,4.1246,4.1254,4.1273,4.1274,4.1275,4.1282,4.1285,4.1287,0,0,0,0,0,0,4.119,4.1199,4.1199,4.1211,4.1218,4.1225,4.1231,4.123,4.1237,4.1236,4.1237,4.1238,4.1251,4.1253,4.1246,4.1268,4.1261,4.1262,4.1266,4.1268,4.127,4.1269,4.124,0,0,0,0,0,4.1193,4.1201,4.1208,4.1219,4.1222,4.1226,4.1231,4.1232,4.1238,4.124,4.1244,4.125,4.1258,4.1263,4.127,4.1284,4.1286,4.129,4.1292,4.1293,4.1295,4.1304,4.1307,4.1279,4.1279,4.1279,0,0,4.1196,4.1202,4.1207,4.1219,4.1224,4.1234,4.1228,4.1237,4.1244,4.1241,4.1253,4.1256,4.1263,4.1276,4.1282,4.1279,4.1303,4.1295,4.1296,4.1297,4.1306,4.1308,4.1311,4.128,4.128,4.128,0,0,4.1208,4.1213,4.1223,4.1229,4.1238,4.1241,4.1244,4.1251,4.1254,4.1266,4.1265,4.1273,4.1286,4.1292,4.1296,4.1313,4.1311,4.1316,4.1325,4.1334,4.1336,4.1338,4.1346,4.1348,4.1317,4.1317,4.1317,0,4.1211,4.1226,4.1228,4.1239,4.1245,4.1245,4.1255,4.1261,4.1271,4.1275,4.1271,4.129,4.1294,4.1309,4.1314,4.1317,4.1321,4.1315,4.1336,4.1338,4.1339,4.1347,4.135,4.1317,4.1317,4.1317,4.1317,0,4.123,4.124,4.1248,4.1259,4.1266,4.1276,4.1281,4.1288,4.1289,4.1293,4.1306,4.1311,4.1321,4.1325,4.1325,4.1341,4.1339,4.1335,4.1329,4.1343,4.135,4.1352,4.1318,4.1318,4.1318,4.1318,0,0,4.1242,4.1257,4.126,4.1266,4.1277,4.1285,4.1296,4.1307,4.1313,4.1321,4.1331,4.1343,4.1341,4.1346,4.1347,4.1355,4.1371,4.1351,4.1351,4.1356,4.1392,4.1395,4.1398,4.137,4.1371,4.1371,4.1392,0,4.1255,4.1276,4.128,4.1298,4.1309,4.131,4.132,4.1328,4.1332,4.1342,4.1346,4.1356,4.1351,4.1355,4.1363,4.1368,4.1379,4.1366,4.138,4.138,4.1379,4.1401,4.1404,4.1423,4.1394,4.1395,4.1395,0,4.1273,4.1284,4.1303,4.1316,4.132,4.1329,4.1341,4.135,4.1359,4.1362,4.1369,4.137,4.1383,4.1376,4.1393,4.1385,4.1391,4.1394,4.1395,4.1397,4.1389,4.1405,4.1429,4.1432,4.1399,4.1399,4.1398,0,4.1282,4.13,4.1315,4.132,4.1334,4.1341,4.1347,4.1356,4.1364,4.1374,4.1379,4.139,4.1396,4.1404,4.1409,4.1403,4.1427,4.1419,4.143,4.143,4.1435,4.1434,4.1461,4.1437,4.1437,4.1437,4.1437,0,4.1296,4.1309,4.1319,4.1328,4.1343,4.1348,4.1362,4.1368,4.1377,4.1388,4.1389,4.1399,4.1403,4.1414,4.1417,4.1433,4.1435,4.1438,4.1439,4.1438,4.1438,4.1442,4.1441,4.1438,4.1438,4.1438,4.1438,0,4.1307,4.1315,4.1331,4.1345,4.1348,4.1358,4.137,4.1379,4.1384,4.1398,4.1402,4.141,4.1423,4.1428,4.1443,4.1446,4.1464,4.1463,4.1461,4.1462,4.1473,4.1472,4.1504,4.1509,4.1481,4.1481,4.1481,0,4.1316,4.1326,4.1342,4.135,4.1357,4.1369,4.1377,4.1384,4.1392,4.1406,4.1414,4.1427,4.1438,4.146,4.1467,4.1479,4.1479,4.149,4.1481,4.1481,4.1481,4.1481,4.1483,4.1491,4.1492,4.1492,4.1492,0,4.1333,4.1337,4.1349,4.1364,4.1374,4.1385,4.1396,4.1403,4.1411,4.142,4.1435,4.1444,4.1461,4.1475,4.1489,4.1495,4.1495,4.1495,4.1498,4.1498,4.1497,4.1499,4.1467,4.1494,4.1494,4.1494,4.1493,4.1493,4.1344,4.1354,4.1367,4.1381,4.1391,4.1402,4.1412,4.142,4.1433,4.1449,4.1452,4.1468,4.1479,4.1498,4.1505,4.1518,4.1515,4.1519,4.152,4.1522,4.1523,4.1495,4.152,4.152,4.152,4.152,4.152,0,4.1361,4.137,4.1384,4.1401,4.1412,4.1414,4.1427,4.1436,4.1451,4.1462,4.1475,4.1492,4.1507,4.1516,4.1531,4.154,4.154,4.1543,4.1543,4.1545,4.1524,4.152,4.1543,4.1543,4.1543,4.1543,4.1543,4.1543,4.1371,4.1389,4.1395,4.1418,4.1427,4.1444,4.1452,4.1463,4.1472,4.1493,4.1506,4.1513,4.1524,4.154,4.1554,4.1556,4.1562,4.1565,4.1568,4.1548,4.1546,4.1544,4.154,4.1566,4.1566,4.1588,4.1588,4.1588]}]]